Starlink 36929

operational
NORAD ID: 68067 Int'l Des: 2026-041 Owner: SPXS Country: US Constellation: starlink
LEOCIRCULAR

Über Starlink 36929

Beschreibung wird geladen...

Live-Position

3D-Globus wird geladen...

Nächste Überflüge

Höhenverlauf

Altitude vs Time

uPlot chart will show altitude changes over time

Zweizeiliger Elementsatz

1 68067C 26041AD 26061.43590278 .00463630 00000+0 61770-3 0 618
2 68067 53.1641 99.7106 0007694 278.0213 111.1786 16.05390069 15
Epoch: 2. März 2026 • Age: 52 hours

Aktueller Status

Höhe 263.6 km
Geschwindigkeit 7.75 km/s
Subsatellitenpunkt -39.73°S, 168.47°W
Startdatum 2. März 2026
Alter 2 days
Typ internet

Technische Details

Klassifizierung Payload
Masse 575.00 kg
Trockenmasse 530.00 kg
Gesamtmasse 575.00 kg
Länge 0.30 m
Durchmesser 4.10 m
Spannweite 29.00 m
Form Box + pan
Hersteller SPXS
Bus-Typ Starlink V2MO
Phasenstatus In Orbit
Besitzer/Staat SPXS/US

Große Konstellationen

Loading constellations...